STARLINK-4519 (53439 NORAD) Tracking and Keplerian Element Data

This shows tracking and keplerian element data for the satellite.

Feedback or suggestion? Click here.




ElementValue
Catalog53439
NameSTARLINK-4519
Epoch Orbit799
Epoch Day270.25001157
Epoch Year2022
RAAN10.2062
Inclination53.2174
Eccentricity0.0002676
Argument of Perigee20.5074
Mean Anonmoly166.0514
Mean Motion15.73171266
Decay Rate0.00020106
L11 53439U 22097BD 22270.25001157 .00020106 00000+0 14750-3 0 9996
L22 53439 53.2174 10.2062 0002676 20.5074 166.0514 15.73171266 7995

Live tracking and technical data element details for STARLINK-4519 (NORAD 53439). STARLINK-4519 can be tracked NOW for your location showing map with azimuth and elevation plus other details from your city location.

Track the satellite on the map from your city or location and see movement details for azimuth, elevation, latitude, longitude, range, height, and movement on the map or in text.







IsCatalogInMostPopularTable: catalog: 53439, numindb: 5
Update: records affected: 1



GetName: 53439 STARLINK-4519

Hit Count: updated at: Fri, 30 Sep 2022 03:07:36 GMT